This is the latest recevied weather packets stored in our database for station/object YO6IKB-10. If no packets are shown the sender has not sent any weather packets the latest 10 day(s).
| Time | Temp. | Humidity | Pressure | Rain* | Wind** | Luminosity | Snow |
|---|---|---|---|---|---|---|---|
| 1777726120 | 6.67° C | 78% | 1018.6 hPa | 0 mm | - | - | - |
| 1777725820 | 6.67° C | 76% | 1018.6 hPa | 0 mm | - | - | - |
| 1777725519 | 6.67° C | 76% | 1018.5 hPa | 0 mm | - | - | - |
| 1777725219 | 6.67° C | 76% | 1018.5 hPa | 0 mm | - | - | - |
| 1777724919 | 7.22° C | 75% | 1018.6 hPa | 0 mm | - | - | - |
| 1777724618 | 7.22° C | 75% | 1018.6 hPa | 0 mm | - | - | - |
| 1777724318 | 7.22° C | 74% | 1018.5 hPa | 0 mm | - | - | - |
| 1777724018 | 6.67° C | 75% | 1018.5 hPa | 0 mm | - | - | - |
| 1777723717 | 6.67° C | 75% | 1018.5 hPa | 0 mm | - | - | - |
| 1777723417 | 6.67° C | 74% | 1018.5 hPa | 0 mm | - | - | - |
| 1777723117 | 6.67° C | 73% | 1018.5 hPa | 0 mm | - | - | - |
| 1777722817 | 7.22° C | 71% | 1018.6 hPa | 0 mm | - | - | - |
| 1777722516 | 7.78° C | 67% | 1018.8 hPa | 0 mm | - | - | - |
| 1777722216 | 8.89° C | 65% | 1018.6 hPa | 0 mm | - | - | - |
| 1777721916 | 10° C | 60% | 1018.6 hPa | 0 mm | - | - | - |
| 1777721615 | 11.11° C | 59% | 1018.5 hPa | 0 mm | - | - | - |
| 1777721315 | 11.67° C | 57% | 1018.4 hPa | 0 mm | - | - | - |
| 1777721015 | 11.67° C | 54% | 1018.3 hPa | 0 mm | - | - | - |
| 1777720715 | 11.67° C | 53% | 1018.3 hPa | 0 mm | - | - | - |
| 1777720414 | 11.67° C | 52% | 1018.3 hPa | 0 mm | - | - | - |
| 1777720114 | 12.22° C | 53% | 1018.3 hPa | 0 mm | - | - | - |
| 1777719814 | 12.78° C | 52% | 1018.3 hPa | 0 mm | - | - | - |
| 1777719513 | 13.33° C | 53% | 1018.3 hPa | 0 mm | - | - | - |
| 1777719213 | 13.33° C | 55% | 1018.3 hPa | 0 mm | - | - | - |
| 1777718913 | 12.78° C | 55% | 1018.3 hPa | 0 mm | - | - | - |
* Rain latest hour (hover to see other rain measurements)
** Current wind speed in m/s (hover to see current wind gust speed)